STARLINK-3707, 52133

Orbit data source: Space-Track

STARLINK-3707, 52133 is a payload satellite owned by SpaceX/Seattle (US) in LEO that was launched on Sat, 19 Mar 2022 UTC via an FALCON 9 launch vehicle from the Air Force Eastern Test Range (AFETR). Payload-class satellites include a variety of spacecraft equipped with specific instruments for various scientific and technological missions. These include communications satellites like Starlink; space stations such as the ISS; scientific satellites like the Hubble; Earth observation satellites from companies like Planet Labs, Umbra, and HawkEye 360; GPS; miniature CubeSats for education and research; and military/defense satellites.

Loading next visibility...
Identifier
52133, 2022-029AX
Orbit
LEO
Country
Flag of USUS
Related business
Manufacturer
SpaceX/Seattle
Mission
Operational Commercial Communications
Bus & Motor
STARLINK, Unknown motor
Mass
297 kg wet, ~275 kg dry
Launch date (UTC)
2022-03-19 (4 years ago)
Launch vehicle
FALCON 9
Launch site
Air Force Eastern Test Range (AFETR)
Object type
Payload
Rocket body
Debris
Shape & HBR
Box + 1 Pan, 10.1 m
Radar Cross Section
13.562 m², Large (>1 m²)

Expand to show TLE details & history
Last TLE update: 2 days ago

TLE from 2 days ago
0 STARLINK-3707
1 52133U 22029AX  26171.40611603  .00000828  00000-0  70126-4 0  9995
2 52133  53.1599 327.8898 0001187  82.0474 278.0652 15.08832811236441
Epoch: 2026-06-20T09:44Z
TLE epoch observation values (Epoch: 2026-06-20T09:44:48.424Z)
Latitude
-0.00001°
Longitude
-86.93317°
Altitude
540.542 km
Speed
7.593 km/s
True Right ascension
21h 51m 33s
True Declination
0° 00' 00"
Sunlit
Object was in full shadow at epoch
Visualization orbit readout
Latitude
Unknown
Longitude
Unknown
Altitude
Unknown
Speed
Unknown
Apparent Right ascension
Unknown
Apparent Declination
Unknown
Sunlit
N/A
Visualization observer readout
Local Sidereal Time
23:08:36
Azimuth
Unknown
Elevation
Unknown
Doppler factor
Unknown
Orbital elements
Apogee altitude
540.841 km
Perigee altitude
539.198 km
Semi-major axis
6,918.156 km
Eccentricity
0.00012
Inclination
53.1599°
RAAN
327.8898°
Arg. of periapsis
82.0474°
True anomaly
278.05173°
Mean anomaly
278.0652°
Eccentric anomaly
278.05847°
Mean motion
3.77188 °/min
Orbital period
95.44 mins
BSTAR
0.000070126
Loading maneuver chart data...
Computing Atmospheric mass density...

Documentation

Showing up to 5 results
|